Hourly Weather Roundup
Issued by NWS Central Illinois

Home | Current Version | Previous Version | Text Only | Print | Product List | Glossary On
Versions: 1 2 3 4 5 6 7 8 9 10 11 12 13 14 15 16 17 18 19 20 21 22 23 24 25 26 27 28 29 30 31 32 33 34 35 36 37 38 39 40 41 42 43 44 45 46 47 48 49 50
000
NZUS43 KILX 070510
HWRILX

AREA WEATHER ROUNDUP
NATIONAL WEATHER SERVICE, LINCOLN IL
1200 AM CDT TUE JUL 07 2015


CITY           SKY/WX    TMP DP  RH WIND       PRES   REMARKS
BLOOMINGTON    CLOUDY    77  74  90 S17       29.87F
CHAMPAIGN      CLOUDY    75  72  90 S8        29.90F
DANVILLE       RAIN      75  72  91 S8G16     29.89S
DECATUR        CLOUDY    78  73  84 S13       29.89F HX  81
EFFINGHAM      CLOUDY    77  72  86 SE7       29.94S
FLORA          PTCLDY    77  73  87 S9        29.95S
GALESBURG      CLOUDY    70  69  97 CALM      29.86F
JACKSONVILLE   CLOUDY    80  74  83 S12       29.86F HX  84
LACON          RAIN      71  69  95 CALM      29.86S
LAWRENCEVILLE  PTCLDY    75  73  93 S7        29.96F
LITCHFIELD     CLOUDY    76  72  88 S10G16    29.90F
$$


CITY           SKY/WX    TMP DP  RH WIND       PRES   REMARKS
LINCOLN        CLOUDY    77  71  81 S10       29.86F
MACOMB         CLOUDY    71  70  98 SW5       29.89S
MATTOON        CLOUDY    76  73  91 S8        29.92S
MT CARMEL AP   PTCLDY    79  72  78 S9        29.96S HX  82
OLNEY-NOBLE AP CLOUDY    77  73  88 S8        29.95S
PARIS          MOCLDY    74  73  96 S7        29.93S
PEORIA         LGT RAIN  74  70  87 W5        29.87S
PONTIAC        LGT RAIN  73  73  97 W3        29.88F
RANTOUL        CLOUDY    75  73  93 S7        29.89F
ROBINSON       PTCLDY    76  73  90 S8        29.95S
SPRINGFIELD    CLOUDY    80  73  79 S13       29.87F HX  84
TAYLORVILLE    CLOUDY    75  72  88 S10       29.89F
$$

...REGIONAL REPORTS...


CITY           SKY/WX    TMP DP  RH WIND       PRES   REMARKS
CHICAGO O`HARE RAIN      71  69  93 W12       29.85F FOG
KANKAKEE       CLOUDY    76  72  87 S9G17     29.87S
MOLINE         LGT RAIN  72  69  90 NW15      29.85F
MOUNT STERLING NOT AVBL
MOUNT VERNON   CLOUDY    77  70  78 S9        29.96S
PITTSFIELD     RAIN      73  70  89 W3        29.89F
QUINCY         CLOUDY    73  71  93 SE6       29.87F
ROCKFORD       LGT RAIN  72  67  84 W16G23    29.85F
$$


CITY           SKY/WX    TMP DP  RH WIND       PRES   REMARKS
BURLINGTON     CLOUDY    72  72 100 S3        29.87R
CEDAR RAPIDS   CLOUDY    66  60  81 N14       29.92S HAZE
DES MOINES     CLOUDY    67  59  75 N7        29.99R HAZE
KIRKSVILLE     CLOUDY    72  69  90 N9        29.91R
OTTUMWA        CLOUDY    66  61  84 N15G24    29.92R HAZE
ST LOUIS       CLOUDY    82  73  74 S8        29.90F HX  87
$$


CITY           SKY/WX    TMP DP  RH WIND       PRES   REMARKS
TERRE HAUTE    PTCLDY    75  73  93 S6        29.94F
EVANSVILLE     PTCLDY    79  73  82 S10       29.98F HX  82
INDIANAPOLIS   MOCLDY    77  70  79 S12       29.94F
LAFAYETTE      MOCLDY    75  67  76 S8        29.90F
MADISON        CLOUDY    63  59  87 N12       29.88R
MILWAUKEE      HVY RAIN  72  68  87 SW15G25   29.83R FOG
$$





USA.gov is the U.S. government's official web portal to all federal, state and local government web resources and services.